Starlink 5289

operational
NORAD ID: 55278 Int'l Des: 2023-010 Owner: SPXS Country: US Constellation: starlink
LEOCIRCULAR

Über Starlink 5289

Beschreibung wird geladen...

Live-Position

3D-Globus wird geladen...

Nächste Überflüge

Höhenverlauf

Altitude vs Time

uPlot chart will show altitude changes over time

Zweizeiliger Elementsatz

1 55278U 23010K 25303.61464941 .00000377 00000-0 39406-4 0 9994
2 55278 69.9999 12.3546 0002943 269.8849 90.1973 14.98333132153291
Epoch: 30. Okt. 2025 • Age: 20 hours

Aktueller Status

Höhe 585.6 km
Geschwindigkeit 7.57 km/s
Subsatellitenpunkt 70.03°N, 90.41°W
Startdatum 19. Jan. 2023
Alter 2.7 years
Typ internet

Technische Details

Klassifizierung Payload
Masse 305.00 kg
Trockenmasse 290.00 kg
Gesamtmasse 305.00 kg
Länge 0.20 m
Durchmesser 2.80 m
Spannweite 9.00 m
Form Box + pan
Hersteller SPXS
Bus-Typ Starlink
Phasenstatus In Orbit
Besitzer/Staat SPXS/US

Große Konstellationen

Loading constellations...